Location: Unspecified
(0.0000°N, 0.0000°E)
Time: 06:14:23
(UTC+00:00)

Vanguard 3 - All Passes

Search period start: 17 April 2026 00:00
Search period end: 27 April 2026 00:00
Orbit: 508 x 3204 km, 33.3° (Epoch: 16 April)

Date Brightness Start Highest point End Pass type
(mag) Time Alt. Az. Time Alt. Az. Time Alt. Az.
17 Apr - 04:20:18 10° N 04:24:19 17° NE 04:29:42 10° E visible
17 Apr - 06:27:51 10° NW 06:35:35 85° NE 06:49:52 10° SE daylight
17 Apr - 08:40:07 10° W 08:50:25 38° SSW 09:06:06 10° SE daylight
17 Apr - 10:58:33 10° SW 11:09:35 20° SSW 11:22:14 10° SSE daylight
17 Apr - 13:20:22 10° SSW 13:32:02 18° S 13:42:42 10° SE daylight
17 Apr - 15:37:24 10° SSW 15:52:12 31° SSE 16:02:32 10° E daylight
17 Apr - 17:53:13 10° SW 18:07:57 73° SSE 18:16:02 10° ENE daylight
17 Apr - 20:11:41 10° W 20:19:41 27° NW 20:24:54 10° NNE visible
18 Apr - 05:07:27 10° NNW 05:13:26 41° NE 05:23:35 10° ESE visible
18 Apr - 07:17:25 10° WNW 07:25:57 56° SSW 07:40:54 10° SE daylight
18 Apr - 09:32:20 10° WSW 09:42:43 25° SSW 09:56:36 10° SSE daylight
18 Apr - 11:53:13 10° SW 12:03:52 17° S 12:14:57 10° SE daylight
18 Apr - 14:12:06 10° SSW 14:25:54 23° SSE 14:37:12 10° ESE daylight
18 Apr - 16:27:51 10° SW 16:44:01 47° SSE 16:53:57 10° E daylight
18 Apr - 18:44:43 10° WSW 18:57:50 62° NW 19:05:06 10° NE visible
19 Apr - 03:48:50 10° N 03:51:56 15° NE 03:55:48 10° ENE visible
19 Apr - 05:56:00 10° NW 06:02:50 87° NE 06:15:30 10° SE daylight
19 Apr - 08:08:08 10° W 08:17:14 35° SSW 08:31:23 10° SE daylight
19 Apr - 10:26:06 10° SW 10:36:01 19° S 10:47:50 10° SSE daylight
19 Apr - 12:46:27 10° SSW 12:58:21 19° S 13:09:44 10° SE daylight
19 Apr - 15:02:45 10° SW 15:18:46 33° SSE 15:30:20 10° E daylight
19 Apr - 17:18:39 10° SW 17:34:56 77° SE 17:44:05 10° ENE daylight
19 Apr - 19:37:37 10° W 19:47:08 29° NW 19:53:10 10° NNE visible
20 Apr - 04:35:42 10° NNW 04:40:57 39° NE 04:49:38 10° ESE visible
20 Apr - 06:45:34 10° WNW 06:53:05 52° SSW 07:06:21 10° SE daylight
20 Apr - 09:00:19 10° WSW 09:09:25 23° SSW 09:21:50 10° SSE daylight
20 Apr - 11:20:15 10° SSW 11:30:13 17° S 11:41:02 10° SE daylight
20 Apr - 13:37:48 10° SSW 13:52:14 24° SSE 14:04:37 10° ESE daylight
20 Apr - 15:53:12 10° SW 16:10:39 50° SSE 16:21:49 10° ENE daylight
20 Apr - 18:10:17 10° WSW 18:24:58 63° NW 18:33:12 10° NE visible
20 Apr - 20:33:45 10° WNW 20:36:32 12° NW 20:38:56 10° NNW visible
21 Apr - 03:17:31 10° NNE 03:19:37 12° NE 03:22:04 10° ENE visible
21 Apr - 05:24:14 10° NW 05:30:15 90° NE 05:41:19 10° SE visible
21 Apr - 07:36:18 10° W 07:44:15 31° SSW 07:56:39 10° SSE daylight
21 Apr - 09:53:56 10° SW 10:02:36 17° S 10:13:08 10° SSE daylight
21 Apr - 12:12:51 10° SSW 12:24:39 19° SSE 12:36:27 10° SE daylight
21 Apr - 14:28:16 10° SW 14:45:07 35° SSE 14:57:56 10° E daylight
21 Apr - 16:44:02 10° SW 17:01:40 79° SE 17:12:00 10° ENE daylight
21 Apr - 19:03:20 10° W 19:14:25 32° NW 19:21:22 10° NNE visible
22 Apr - 04:03:59 10° NNW 04:08:36 37° NE 04:15:57 10° ESE visible
22 Apr - 06:13:49 10° W 06:20:24 46° SSW 06:31:56 10° SE daylight
22 Apr - 08:28:30 10° WSW 08:36:19 20° SSW 08:46:55 10° SSE daylight
22 Apr - 10:47:37 10° SSW 10:56:40 16° S 11:06:47 10° SE daylight
22 Apr - 13:03:46 10° SSW 13:18:27 25° SSE 13:31:46 10° ESE daylight
22 Apr - 15:18:39 10° SW 15:37:04 53° SSE 15:49:31 10° ENE daylight
22 Apr - 17:35:44 10° WSW 17:51:51 64° NW 18:01:11 10° NE daylight
22 Apr - 19:59:05 10° WNW 20:03:58 14° NW 20:07:53 10° NNW visible
23 Apr - 02:46:35 10° NNE 02:47:22 10° NE 02:48:11 10° NE visible
23 Apr - 04:52:29 10° NW 04:57:49 87° SW 05:07:21 10° SE visible
23 Apr - 07:04:37 10° WSW 07:11:27 27° SSW 07:21:58 10° SSE daylight
23 Apr - 09:22:04 10° SW 09:29:20 15° S 09:38:10 10° SSE daylight
23 Apr - 11:39:32 10° SSW 11:50:55 19° SSE 12:02:51 10° SE daylight
23 Apr - 13:54:00 10° SW 14:11:17 37° SSE 14:25:18 10° E daylight
23 Apr - 16:09:26 10° SW 16:28:11 81° SE 16:39:47 10° ENE daylight
23 Apr - 18:28:52 10° W 18:41:32 34° NW 18:49:29 10° NNE visible
24 Apr - 03:32:15 10° NNW 03:36:21 35° NE 03:42:32 10° ESE visible
24 Apr - 05:42:07 10° W 05:47:54 41° SSW 05:57:41 10° SE daylight
24 Apr - 07:56:57 10° SW 08:03:22 18° SSW 08:11:55 10° SSE daylight
24 Apr - 10:15:19 10° SSW 10:23:11 15° S 10:32:12 10° SE daylight
24 Apr - 12:30:00 10° SSW 12:44:34 26° SSE 12:58:37 10° ESE daylight
24 Apr - 14:44:14 10° SW 15:03:15 55° SSE 15:17:01 10° ENE daylight
24 Apr - 17:01:08 10° WSW 17:18:33 64° NW 17:29:03 10° NE daylight
24 Apr - 19:24:30 10° WNW 19:31:18 16° NW 19:36:28 10° N visible
25 Apr - 04:20:47 10° WNW 04:25:32 82° SW 04:33:39 10° SE visible
25 Apr - 06:33:04 10° WSW 06:38:50 23° SSW 06:47:22 10° SSE daylight
25 Apr - 08:50:39 10° SSW 08:56:14 13° S 09:02:51 10° SSE daylight
25 Apr - 11:06:32 10° SSW 11:17:13 18° SSE 11:28:57 10° SE daylight
25 Apr - 13:19:57 10° SSW 13:37:19 38° SSE 13:52:25 10° E daylight
25 Apr - 15:34:55 10° SW 15:54:28 83° SE 16:07:23 10° ENE daylight
25 Apr - 17:54:19 10° W 18:08:27 36° NW 18:17:28 10° NNE daylight
26 Apr - 03:00:29 10° NNW 03:04:11 33° NE 03:09:24 10° ESE visible
26 Apr - 05:10:31 10° W 05:15:32 35° SSW 05:23:39 10° SE visible
26 Apr - 07:25:45 10° SW 07:30:37 15° S 07:36:46 10° SSE daylight
26 Apr - 09:43:24 10° SSW 09:49:51 13° S 09:57:15 10° SSE daylight
26 Apr - 11:56:31 10° SSW 12:10:40 26° SSE 12:25:12 10° ESE daylight
26 Apr - 14:10:01 10° SW 14:29:15 57° SSE 14:44:19 10° ENE daylight
26 Apr - 16:26:34 10° WSW 16:45:00 65° NW 16:56:45 10° NE daylight
26 Apr - 18:49:52 10° WNW 18:58:28 19° NW 19:04:49 10° N visible
